User: anonymous   Login
Location: Lugrin
(46.4033°N, 6.6674°E)
Time: 14:48:14
(UTC+00:00)
Language:

Cosmos 1975 - Orbit

View from above orbital plane
View from above orbital plane
View from above satellite
View from above satellite

Ground track
Ground track

The orbit data is extracted from the following two-line orbital elements,

1 19573U 88093A   20334.11847580  .00001102  00000-0  75612-4 0  9998
2 19573  82.5208 204.6737 0013540 328.1050  31.9356 15.04988466749416
Epoch (UTC): 29 November 2020 02:50:36
Eccentricity: 0.0013540
inclination: 82.5208°
perigee height: 542 km
apogee height: 561 km
right ascension of ascending node: 204.6737°
argument of perigee: 328.1050°
revolutions per day: 15.04988466
mean anomaly at epoch: 31.9356°
orbit number at epoch: 74941

The dashed part of the orbit path shows where the satellite is in the earth's shadow,  

DLR